| time (UTC) | temp F | wind direction | speed MPH | gust MPH | rain 1hr in | rain 24hr in | rain mn in | humidity % | barometer mb |
| 20260507081442 | 68 | 37 | 1.0 | 4.0 | 0.00 | 0.47 | 0.06 | 71 | 1014.8 |
| 20260507080935 | 68 | 37 | 1.0 | 5.0 | 0.00 | 0.47 | 0.06 | 71 | 1014.8 |
| 20260507080433 | 68 | 37 | 1.0 | 5.0 | 0.00 | 0.47 | 0.06 | 71 | 1014.9 |
| 20260507075945 | 68 | 38 | 1.0 | 3.0 | 0.00 | 0.47 | 0.06 | 71 | 1015.0 |
| 20260507075444 | 68 | 38 | 0.0 | 1.0 | 0.00 | 0.47 | 0.06 | 72 | 1015.0 |
| 20260507074933 | 69 | 42 | 0.0 | 0.0 | 0.00 | 0.47 | 0.06 | 73 | 1014.9 |
| 20260507074457 | 68 | 43 | 0.0 | 0.0 | 0.00 | 0.47 | 0.06 | 75 | 1014.9 |
| 20260507073942 | 68 | 43 | 0.0 | 0.0 | 0.00 | 0.47 | 0.06 | 75 | 1014.9 |
| 20260507073438 | 67 | 43 | 0.0 | 0.0 | 0.00 | 0.47 | 0.06 | 76 | 1014.9 |
| 20260507072951 | 67 | 43 | 0.0 | 0.0 | 0.00 | 0.47 | 0.06 | 77 | 1014.9 |
| 20260507072443 | 67 | 52 | 0.0 | 0.0 | 0.00 | 0.47 | 0.06 | 77 | 1014.9 |
| 20260507071934 | 66 | 52 | 0.0 | 0.0 | 0.00 | 0.47 | 0.06 | 79 | 1014.9 |
| 20260507071430 | 66 | 52 | 0.0 | 0.0 | 0.00 | 0.47 | 0.06 | 80 | 1014.9 |
| 20260507070941 | 65 | 52 | 0.0 | 0.0 | 0.00 | 0.47 | 0.06 | 81 | 1015.1 |
| 20260507070435 | 65 | 52 | 0.0 | 0.0 | 0.00 | 0.47 | 0.06 | 81 | 1015.1 |
| 20260507065955 | 64 | 52 | 0.0 | 0.0 | 0.00 | 0.47 | 0.06 | 82 | 1015.1 |
| 20260507065441 | 64 | 52 | 0.0 | 0.0 | 0.00 | 0.47 | 0.06 | 82 | 1015.1 |
| 20260507064931 | 64 | 52 | 0.0 | 0.0 | 0.00 | 0.47 | 0.06 | 83 | 1015.1 |
| 20260507064427 | 63 | 52 | 0.0 | 3.0 | 0.00 | 0.47 | 0.06 | 83 | 1015.0 |
| 20260507063939 | 63 | 52 | 1.0 | 3.0 | 0.00 | 0.47 | 0.06 | 83 | 1015.0 |
| 20260507063436 | 63 | 52 | 0.0 | 3.0 | 0.00 | 0.47 | 0.06 | 84 | 1014.9 |
| 20260507062949 | 62 | 52 | 1.0 | 3.0 | 0.00 | 0.47 | 0.06 | 84 | 1014.9 |
| 20260507062445 | 62 | 53 | 1.0 | 3.0 | 0.00 | 0.47 | 0.06 | 85 | 1014.9 |
| 20260507061936 | 62 | 53 | 0.0 | 0.0 | 0.00 | 0.47 | 0.06 | 86 | 1014.7 |
| 20260507061433 | 61 | 53 | 0.0 | 4.0 | 0.00 | 0.47 | 0.06 | 86 | 1014.7 |
| 20260507060926 | 61 | 53 | 1.0 | 4.0 | 0.00 | 0.47 | 0.06 | 86 | 1014.7 |
| 20260507060446 | 61 | 54 | 2.0 | 4.0 | 0.00 | 0.47 | 0.06 | 86 | 1014.7 |
| 20260507055956 | 61 | 61 | 0.0 | 4.0 | 0.00 | 0.51 | 0.06 | 87 | 1014.6 |
| 20260507055440 | 61 | 62 | 2.0 | 4.0 | 0.00 | 0.51 | 0.06 | 87 | 1014.6 |
| 20260507054934 | 61 | 68 | 1.0 | 3.0 | 0.00 | 0.51 | 0.06 | 87 | 1014.6 |
| 20260507054432 | 60 | 69 | 1.0 | 2.0 | 0.00 | 0.51 | 0.06 | 88 | 1014.6 |
| 20260507053943 | 60 | 69 | 0.0 | 3.0 | 0.00 | 0.51 | 0.06 | 89 | 1014.7 |
| 20260507053441 | 60 | 69 | 0.0 | 3.0 | 0.00 | 0.51 | 0.06 | 90 | 1014.7 |
| 20260507052944 | 60 | 69 | 1.0 | 3.0 | 0.00 | 0.51 | 0.06 | 90 | 1014.7 |
| 20260507052441 | 59 | 69 | 1.0 | 4.0 | 0.00 | 0.51 | 0.06 | 90 | 1014.6 |
| 20260507051949 | 59 | 69 | 1.0 | 4.0 | 0.00 | 0.51 | 0.06 | 90 | 1014.5 |
| 20260507051442 | 59 | 69 | 1.0 | 5.0 | 0.00 | 0.51 | 0.06 | 90 | 1014.6 |
| 20260507050935 | 59 | 69 | 2.0 | 5.0 | 0.00 | 0.51 | 0.06 | 90 | 1014.6 |
| 20260507050431 | 58 | 69 | 3.0 | 5.0 | 0.00 | 0.51 | 0.06 | 90 | 1014.6 |
| 20260507045946 | 58 | 69 | 2.0 | 4.0 | 0.00 | 0.55 | 0.06 | 90 | 1014.5 |
| 20260507045443 | 58 | 69 | 2.0 | 4.0 | 0.00 | 0.55 | 0.06 | 90 | 1014.5 |
| 20260507044937 | 58 | 69 | 1.0 | 4.0 | 0.00 | 0.55 | 0.06 | 90 | 1014.5 |
| 20260507044435 | 58 | 69 | 1.0 | 5.0 | 0.00 | 0.55 | 0.06 | 90 | 1014.4 |
| 20260507044005 | 58 | 69 | 3.0 | 5.0 | 0.00 | 0.55 | 0.06 | 90 | 1014.3 |
| 20260507043441 | 58 | 69 | 0.0 | 6.0 | 0.00 | 0.55 | 0.06 | 90 | 1014.3 |
| 20260507042933 | 58 | 68 | 3.0 | 6.0 | 0.00 | 0.55 | 0.06 | 90 | 1014.4 |
| 20260507042432 | 58 | 67 | 3.0 | 6.0 | 0.00 | 0.55 | 0.06 | 90 | 1014.5 |
| 20260507041945 | 58 | 64 | 2.0 | 5.0 | 0.00 | 0.55 | 0.06 | 90 | 1014.4 |
| 20260507041443 | 58 | 64 | 2.0 | 8.0 | 0.00 | 0.55 | 0.06 | 90 | 1014.4 |
| 20260507040936 | 58 | 77 | 4.0 | 8.0 | 0.00 | 0.55 | 0.06 | 90 | 1014.3 |
| 20260507040434 | 58 | 80 | 2.0 | 6.0 | 0.00 | 0.55 | 0.06 | 90 | 1014.3 |
| 20260507035948 | 58 | 83 | 2.0 | 6.0 | 0.00 | 0.55 | 0.06 | 90 | 1014.3 |
| 20260507035441 | 58 | 84 | 3.0 | 6.0 | 0.00 | 0.55 | 0.06 | 90 | 1014.3 |
| 20260507034955 | 58 | 85 | 3.0 | 6.0 | 0.00 | 0.55 | 0.06 | 91 | 1014.3 |
| 20260507034430 | 58 | 89 | 3.0 | 6.0 | 0.00 | 0.55 | 0.06 | 91 | 1014.3 |
| 20260507033943 | 58 | 90 | 2.0 | 5.0 | 0.00 | 0.55 | 0.06 | 91 | 1014.3 |
| 20260507033440 | 58 | 90 | 2.0 | 6.0 | 0.00 | 0.55 | 0.06 | 91 | 1014.4 |
| 20260507032933 | 58 | 90 | 1.0 | 7.0 | 0.00 | 0.55 | 0.06 | 91 | 1014.4 |
| 20260507032432 | 58 | 90 | 2.0 | 7.0 | 0.00 | 0.55 | 0.06 | 91 | 1014.4 |
| 20260507031947 | 58 | 90 | 3.0 | 6.0 | 0.00 | 0.55 | 0.06 | 91 | 1014.4 |
| 20260507031445 | 58 | 90 | 1.0 | 4.0 | 0.00 | 0.55 | 0.06 | 91 | 1014.5 |
| 20260507030935 | 58 | 90 | 2.0 | 8.0 | 0.00 | 0.55 | 0.06 | 91 | 1014.4 |
| 20260507030459 | 58 | 91 | 2.0 | 8.0 | 0.00 | 0.55 | 0.06 | 91 | 1014.3 |
| 20260507025929 | 58 | 96 | 3.0 | 7.0 | 0.00 | 0.55 | 0.06 | 91 | 1014.3 |
| 20260507025428 | 58 | 95 | 2.0 | 6.0 | 0.00 | 0.55 | 0.06 | 91 | 1014.3 |
| 20260507024943 | 58 | 59 | 2.0 | 6.0 | 0.04 | 0.55 | 0.06 | 91 | 1014.3 |
| 20260507024509 | 58 | 36 | 1.0 | 5.0 | 0.08 | 0.55 | 0.06 | 91 | 1014.3 |
| 20260507023938 | 59 | 33 | 1.0 | 6.0 | 0.08 | 0.55 | 0.06 | 91 | 1014.4 |
| 20260507023436 | 59 | 78 | 2.0 | 9.0 | 0.12 | 0.55 | 0.06 | 91 | 1014.3 |
| 20260507022948 | 59 | 80 | 4.0 | 9.0 | 0.12 | 0.55 | 0.06 | 91 | 1014.4 |
| 20260507022442 | 59 | 83 | 3.0 | 10.0 | 0.16 | 0.55 | 0.06 | 91 | 1014.4 |
| 20260507021927 | 59 | 75 | 4.0 | 10.0 | 0.16 | 0.55 | 0.06 | 90 | 1014.4 |
| 20260507021427 | 59 | 82 | 6.0 | 10.0 | 0.16 | 0.55 | 0.06 | 91 | 1014.3 |
| 20260507020939 | 59 | 79 | 4.0 | 9.0 | 0.16 | 0.55 | 0.06 | 91 | 1014.4 |
| 20260507020504 | 59 | 77 | 3.0 | 8.0 | 0.16 | 0.55 | 0.06 | 91 | 1014.4 |
| 20260507015933 | 59 | 77 | 4.0 | 6.0 | 0.16 | 0.55 | 0.06 | 91 | 1014.5 |
| 20260507015431 | 59 | 79 | 1.0 | 4.0 | 0.16 | 0.55 | 0.06 | 91 | 1014.5 |
| 20260507014937 | 59 | 79 | 1.0 | 5.0 | 0.12 | 0.51 | 0.05 | 91 | 1014.4 |
| 20260507014432 | 59 | 79 | 1.0 | 6.0 | 0.08 | 0.47 | 0.04 | 90 | 1014.4 |
| 20260507013945 | 59 | 79 | 3.0 | 6.0 | 0.08 | 0.47 | 0.04 | 90 | 1014.5 |
| 20260507013440 | 59 | 80 | 1.0 | 3.0 | 0.04 | 0.43 | 0.03 | 90 | 1014.4 |
| 20260507012951 | 59 | 80 | 0.0 | 6.0 | 0.04 | 0.43 | 0.03 | 90 | 1014.4 |
| 20260507012448 | 59 | 80 | 0.0 | 6.0 | 0.00 | 0.39 | 0.02 | 90 | 1014.3 |
| 20260507012001 | 59 | 80 | 4.0 | 9.0 | 0.00 | 0.39 | 0.02 | 89 | 1014.3 |
| 20260507011435 | 59 | 81 | 5.0 | 9.0 | 0.00 | 0.39 | 0.02 | 89 | 1014.2 |
| 20260507010948 | 59 | 86 | 4.0 | 8.0 | 0.00 | 0.39 | 0.02 | 89 | 1014.3 |
| 20260507010446 | 59 | 91 | 3.0 | 4.0 | 0.04 | 0.39 | 0.02 | 89 | 1014.3 |
| 20260507005935 | 59 | 91 | 1.0 | 4.0 | 0.04 | 0.39 | 0.02 | 89 | 1014.4 |
| 20260507005432 | 59 | 91 | 1.0 | 3.0 | 0.08 | 0.39 | 0.02 | 89 | 1014.4 |
| 20260507004941 | 59 | 91 | 1.0 | 6.0 | 0.08 | 0.39 | 0.02 | 89 | 1014.4 |
| 20260507004438 | 59 | 91 | 1.0 | 6.0 | 0.12 | 0.39 | 0.02 | 89 | 1014.4 |
| 20260507003929 | 59 | 91 | 1.0 | 7.0 | 0.12 | 0.39 | 0.02 | 89 | 1014.4 |
| 20260507003508 | 59 | 91 | 3.0 | 7.0 | 0.12 | 0.39 | 0.02 | 88 | 1014.5 |
| 20260507002939 | 59 | 92 | 1.0 | 8.0 | 0.12 | 0.39 | 0.02 | 88 | 1014.5 |
| 20260507002502 | 59 | 91 | 4.0 | 8.0 | 0.12 | 0.39 | 0.02 | 87 | 1014.4 |
| 20260507001959 | 59 | 88 | 3.0 | 8.0 | 0.12 | 0.39 | 0.02 | 87 | 1014.5 |
| 20260507001431 | 60 | 81 | 4.0 | 8.0 | 0.12 | 0.39 | 0.02 | 87 | 1014.5 |
| 20260507001003 | 60 | 113 | 3.0 | 8.0 | 0.12 | 0.39 | 0.02 | 86 | 1014.4 |
| 20260507000436 | 60 | 127 | 3.0 | 9.0 | 0.08 | 0.35 | 0.02 | 87 | 1014.5 |
| 20260507000006 | 61 | 145 | 2.0 | 9.0 | 0.08 | 0.35 | 0.02 | 86 | 1014.5 |
| 20260506235442 | 61 | 153 | 3.0 | 10.0 | 0.04 | 0.31 | 0.01 | 86 | 1014.6 |
| 20260506234959 | 61 | 151 | 4.0 | 11.0 | 0.04 | 0.31 | 0.01 | 85 | 1014.6 |
| 20260506234436 | 61 | 156 | 3.0 | 11.0 | 0.00 | 0.28 | 0.00 | 86 | 1014.6 |
| 20260506233929 | 61 | 170 | 4.0 | 16.0 | 0.00 | 0.28 | 0.00 | 86 | 1014.7 |
| 20260506233431 | 61 | 163 | 5.0 | 22.0 | 0.00 | 0.28 | 0.00 | 85 | 1014.7 |
| 20260506232941 | 61 | 165 | 6.0 | 22.0 | 0.00 | 0.28 | 0.00 | 85 | 1014.6 |
| 20260506232437 | 61 | 179 | 5.0 | 18.0 | 0.00 | 0.28 | 0.00 | 84 | 1014.6 |
| 20260506231947 | 61 | 165 | 9.0 | 18.0 | 0.00 | 0.28 | 0.00 | 84 | 1014.6 |
| 20260506231443 | 61 | 186 | 8.0 | 15.0 | 0.00 | 0.28 | 0.00 | 84 | 1014.5 |
| 20260506230933 | 61 | 190 | 6.0 | 17.0 | 0.00 | 0.28 | 0.00 | 84 | 1014.4 |
| 20260506230519 | 61 | 131 | 7.0 | 17.0 | 0.00 | 0.28 | 0.00 | 84 | 1014.4 |
| 20260506225954 | 61 | 139 | 6.0 | 10.0 | 0.00 | 0.28 | 0.00 | 85 | 1014.4 |
| 20260506225431 | 61 | 171 | 6.0 | 10.0 | 0.04 | 0.28 | 0.00 | 85 | 1014.4 |
| 20260506224952 | 61 | 158 | 5.0 | 9.0 | 0.08 | 0.28 | 0.00 | 86 | 1014.4 |
| 20260506224439 | 61 | 161 | 3.0 | 5.0 | 0.08 | 0.28 | 0.00 | 86 | 1014.5 |
| 20260506223930 | 62 | 161 | 1.0 | 3.0 | 0.08 | 0.28 | 0.00 | 87 | 1014.4 |
| 20260506223428 | 62 | 161 | 0.0 | 0.0 | 0.08 | 0.28 | 0.00 | 87 | 1014.4 |
| 20260506222940 | 62 | 161 | 0.0 | 0.0 | 0.08 | 0.28 | 0.00 | 87 | 1014.4 |
| 20260506222503 | 62 | 161 | 0.0 | 0.0 | 0.08 | 0.28 | 0.00 | 86 | 1014.4 |
| 20260506221954 | 62 | 161 | 0.0 | 0.0 | 0.08 | 0.28 | 0.00 | 85 | 1014.4 |
| 20260506221448 | 62 | 161 | 0.0 | 2.0 | 0.08 | 0.28 | 0.00 | 85 | 1014.4 |
| 20260506220959 | 62 | 161 | 0.0 | 2.0 | 0.08 | 0.28 | 0.00 | 85 | 1014.4 |
| 20260506220443 | 62 | 161 | 0.0 | 6.0 | 0.08 | 0.28 | 0.00 | 85 | 1014.4 |
| 20260506215954 | 62 | 161 | 1.0 | 6.0 | 0.08 | 0.24 | 0.05 | 85 | 1014.4 |
| 20260506215429 | 62 | 161 | 3.0 | 8.0 | 0.04 | 0.20 | 0.05 | 85 | 1014.4 |
| 20260506214951 | 62 | 161 | 3.0 | 8.0 | 0.04 | 0.20 | 0.04 | 85 | 1014.4 |
| 20260506214439 | 62 | 161 | 2.0 | 7.0 | 0.04 | 0.20 | 0.04 | 85 | 1014.4 |
| 20260506213930 | 62 | 161 | 2.0 | 7.0 | 0.04 | 0.20 | 0.04 | 85 | 1014.4 |
| 20260506213457 | 62 | 161 | 3.0 | 7.0 | 0.08 | 0.20 | 0.04 | 85 | 1014.4 |
| 20260506212948 | 63 | 162 | 3.0 | 8.0 | 0.08 | 0.20 | 0.04 | 85 | 1014.5 |
| 20260506212447 | 63 | 162 | 4.0 | 8.0 | 0.08 | 0.20 | 0.04 | 85 | 1014.5 |
| 20260506211945 | 63 | 162 | 2.0 | 7.0 | 0.08 | 0.20 | 0.04 | 84 | 1014.5 |
| 20260506211443 | 63 | 162 | 5.0 | 10.0 | 0.08 | 0.20 | 0.04 | 84 | 1014.5 |
| 20260506210937 | 63 | 163 | 6.0 | 10.0 | 0.08 | 0.20 | 0.04 | 84 | 1014.6 |
| 20260506210502 | 63 | 160 | 4.0 | 8.0 | 0.08 | 0.20 | 0.04 | 83 | 1014.6 |
| 20260506205929 | 63 | 158 | 3.0 | 7.0 | 0.04 | 0.16 | 0.03 | 83 | 1014.5 |
| 20260506205454 | 63 | 158 | 3.0 | 7.0 | 0.08 | 0.16 | 0.03 | 82 | 1014.5 |
| 20260506205007 | 63 | 158 | 1.0 | 7.0 | 0.08 | 0.16 | 0.03 | 81 | 1014.6 |
| 20260506204443 | 63 | 158 | 3.0 | 8.0 | 0.08 | 0.16 | 0.03 | 81 | 1014.6 |
| 20260506203936 | 63 | 157 | 4.0 | 10.0 | 0.08 | 0.16 | 0.03 | 80 | 1014.6 |
| 20260506203435 | 64 | 155 | 5.0 | 10.0 | 0.04 | 0.12 | 0.02 | 79 | 1014.6 |
| 20260506202941 | 64 | 146 | 4.0 | 10.0 | 0.04 | 0.12 | 0.02 | 79 | 1014.6 |
| 20260506202503 | 64 | 159 | 4.0 | 10.0 | 0.04 | 0.12 | 0.02 | 78 | 1014.7 |
| 20260506201943 | 64 | 171 | 3.0 | 9.0 | 0.04 | 0.12 | 0.02 | 78 | 1014.7 |
| 20260506201439 | 64 | 169 | 4.0 | 9.0 | 0.04 | 0.12 | 0.02 | 77 | 1014.6 |
| 20260506200927 | 65 | 154 | 3.0 | 10.0 | 0.04 | 0.12 | 0.02 | 77 | 1014.6 |
| 20260506200454 | 65 | 156 | 4.0 | 12.0 | 0.04 | 0.12 | 0.02 | 76 | 1014.6 |
| 20260506195959 | 65 | 152 | 6.0 | 13.0 | 0.04 | 0.12 | 0.02 | 75 | 1014.6 |
| 20260506195446 | 65 | 144 | 6.0 | 13.0 | 0.00 | 0.08 | 0.02 | 75 | 1014.6 |
| 20260506194958 | 66 | 165 | 5.0 | 13.0 | 0.00 | 0.08 | 0.02 | 73 | 1014.6 |
| 20260506194459 | 66 | 155 | 7.0 | 13.0 | 0.00 | 0.08 | 0.02 | 72 | 1014.5 |
| 20260506193939 | 66 | 154 | 6.0 | 12.0 | 0.00 | 0.08 | 0.02 | 71 | 1014.5 |
| 20260506193434 | 66 | 166 | 7.0 | 16.0 | 0.00 | 0.08 | 0.02 | 70 | 1014.5 |
| 20260506193016 | 66 | 183 | 7.0 | 16.0 | 0.00 | 0.08 | 0.02 | 69 | 1014.5 |
| 20260506192447 | 66 | 208 | 6.0 | 15.0 | 0.00 | 0.08 | 0.02 | 68 | 1014.4 |
| 20260506191945 | 66 | 169 | 9.0 | 15.0 | 0.00 | 0.08 | 0.02 | 68 | 1014.3 |
| 20260506191436 | 66 | 149 | 3.0 | 8.0 | 0.00 | 0.08 | 0.02 | 68 | 1014.3 |
| 20260506190928 | 66 | 165 | 5.0 | 12.0 | 0.00 | 0.08 | 0.02 | 67 | 1014.2 |
| 20260506190506 | 66 | 164 | 6.0 | 14.0 | 0.00 | 0.08 | 0.02 | 68 | 1014.2 |
| 20260506185955 | 66 | 173 | 6.0 | 14.0 | 0.00 | 0.08 | 0.02 | 69 | 1014.1 |
| 20260506185507 | 66 | 167 | 5.0 | 10.0 | 0.00 | 0.08 | 0.02 | 69 | 1014.0 |
| 20260506184955 | 66 | 181 | 3.0 | 10.0 | 0.00 | 0.08 | 0.02 | 70 | 1014.0 |
| 20260506184454 | 66 | 153 | 4.0 | 10.0 | 0.00 | 0.08 | 0.02 | 70 | 1014.0 |
| 20260506183944 | 67 | 147 | 6.0 | 10.0 | 0.00 | 0.08 | 0.02 | 70 | 1014.0 |
| 20260506183505 | 67 | 159 | 5.0 | 10.0 | 0.00 | 0.08 | 0.02 | 70 | 1014.0 |
| 20260506182944 | 67 | 165 | 5.0 | 8.0 | 0.00 | 0.08 | 0.02 | 70 | 1014.0 |
| 20260506182433 | 67 | 165 | 4.0 | 9.0 | 0.00 | 0.08 | 0.02 | 70 | 1013.9 |
| 20260506181946 | 67 | 155 | 4.0 | 9.0 | 0.00 | 0.08 | 0.02 | 70 | 1013.9 |
| 20260506181445 | 67 | 163 | 3.0 | 10.0 | 0.00 | 0.08 | 0.02 | 70 | 1013.8 |
| 20260506181001 | 67 | 163 | 5.0 | 10.0 | 0.00 | 0.08 | 0.02 | 70 | 1013.8 |
| 20260506180503 | 67 | 163 | 7.0 | 10.0 | 0.00 | 0.08 | 0.02 | 70 | 1013.8 |
| 20260506175947 | 67 | 163 | 5.0 | 10.0 | 0.00 | 0.08 | 0.02 | 70 | 1013.8 |
| 20260506175443 | 67 | 167 | 3.0 | 11.0 | 0.00 | 0.08 | 0.02 | 70 | 1013.8 |
| 20260506174930 | 67 | 157 | 5.0 | 11.0 | 0.00 | 0.08 | 0.02 | 70 | 1013.8 |
| 20260506174431 | 67 | 169 | 5.0 | 15.0 | 0.00 | 0.08 | 0.02 | 69 | 1013.8 |
| 20260506173944 | 67 | 142 | 6.0 | 15.0 | 0.00 | 0.08 | 0.02 | 70 | 1013.8 |
| 20260506173441 | 67 | 156 | 6.0 | 14.0 | 0.00 | 0.08 | 0.02 | 70 | 1013.8 |
| 20260506172935 | 67 | 161 | 4.0 | 13.0 | 0.00 | 0.08 | 0.02 | 70 | 1013.8 |
| 20260506172433 | 67 | 150 | 5.0 | 13.0 | 0.00 | 0.08 | 0.02 | 71 | 1013.7 |
| 20260506171946 | 67 | 161 | 4.0 | 12.0 | 0.00 | 0.08 | 0.02 | 72 | 1013.7 |
| 20260506171444 | 67 | 142 | 7.0 | 12.0 | 0.00 | 0.08 | 0.02 | 72 | 1013.7 |
| 20260506170933 | 67 | 148 | 7.0 | 12.0 | 0.00 | 0.08 | 0.02 | 71 | 1013.7 |
| 20260506170428 | 67 | 210 | 8.0 | 12.0 | 0.00 | 0.08 | 0.02 | 72 | 1013.8 |
| 20260506165943 | 67 | 156 | 3.0 | 8.0 | 0.00 | 0.08 | 0.02 | 73 | 1013.8 |
| 20260506165441 | 67 | 165 | 4.0 | 9.0 | 0.00 | 0.08 | 0.02 | 72 | 1013.9 |
| 20260506164933 | 67 | 178 | 5.0 | 10.0 | 0.00 | 0.08 | 0.02 | 72 | 1013.8 |
| 20260506164432 | 68 | 193 | 5.0 | 13.0 | 0.00 | 0.08 | 0.02 | 73 | 1013.9 |
| 20260506163928 | 68 | 151 | 4.0 | 15.0 | 0.00 | 0.08 | 0.02 | 72 | 1013.9 |
| 20260506163454 | 68 | 123 | 5.0 | 16.0 | 0.00 | 0.08 | 0.02 | 70 | 1013.9 |
| 20260506162945 | 68 | 148 | 6.0 | 16.0 | 0.00 | 0.08 | 0.02 | 68 | 1013.9 |
| 20260506162444 | 68 | 150 | 7.0 | 14.0 | 0.00 | 0.08 | 0.02 | 68 | 1013.8 |
| 20260506161932 | 68 | 165 | 4.0 | 18.0 | 0.00 | 0.08 | 0.02 | 68 | 1013.9 |
| 20260506161429 | 68 | 158 | 9.0 | 18.0 | 0.00 | 0.08 | 0.02 | 68 | 1013.9 |
| 20260506160943 | 68 | 174 | 6.0 | 14.0 | 0.00 | 0.08 | 0.02 | 68 | 1013.9 |
| 20260506160440 | 68 | 163 | 4.0 | 11.0 | 0.00 | 0.08 | 0.02 | 68 | 1013.8 |
| 20260506155931 | 69 | 169 | 5.0 | 12.0 | 0.00 | 0.08 | 0.02 | 68 | 1013.8 |
| 20260506155428 | 69 | 175 | 5.0 | 12.0 | 0.00 | 0.08 | 0.02 | 67 | 1013.8 |
| 20260506154939 | 68 | 182 | 8.0 | 14.0 | 0.00 | 0.08 | 0.02 | 67 | 1013.8 |
| 20260506154507 | 69 | 185 | 5.0 | 11.0 | 0.00 | 0.08 | 0.02 | 67 | 1013.9 |
| 20260506153937 | 69 | 179 | 5.0 | 15.0 | 0.00 | 0.08 | 0.02 | 66 | 1014.0 |
| 20260506153430 | 69 | 180 | 6.0 | 15.0 | 0.00 | 0.08 | 0.02 | 66 | 1014.0 |
| 20260506152944 | 69 | 179 | 6.0 | 13.0 | 0.00 | 0.08 | 0.02 | 66 | 1014.0 |
| 20260506152442 | 69 | 207 | 6.0 | 11.0 | 0.00 | 0.08 | 0.02 | 66 | 1014.0 |
| 20260506151958 | 69 | 163 | 5.0 | 11.0 | 0.00 | 0.08 | 0.02 | 66 | 1014.0 |
| 20260506151433 | 70 | 175 | 4.0 | 12.0 | 0.00 | 0.08 | 0.02 | 66 | 1014.0 |
| 20260506150948 | 70 | 177 | 3.0 | 6.0 | 0.00 | 0.08 | 0.02 | 66 | 1014.0 |
| 20260506150446 | 70 | 192 | 3.0 | 14.0 | 0.00 | 0.08 | 0.02 | 65 | 1014.0 |
| 20260506145931 | 70 | 186 | 6.0 | 14.0 | 0.00 | 0.08 | 0.02 | 65 | 1014.0 |
| 20260506145427 | 70 | 179 | 6.0 | 13.0 | 0.00 | 0.08 | 0.02 | 64 | 1014.0 |
| 20260506144940 | 71 | 168 | 5.0 | 10.0 | 0.00 | 0.08 | 0.02 | 65 | 1013.9 |
| 20260506144438 | 71 | 186 | 2.0 | 14.0 | 0.00 | 0.08 | 0.02 | 65 | 1013.8 |
| 20260506143948 | 71 | 159 | 5.0 | 14.0 | 0.00 | 0.08 | 0.02 | 65 | 1013.8 |
| 20260506143445 | 71 | 202 | 5.0 | 10.0 | 0.00 | 0.08 | 0.02 | 64 | 1013.9 |
| 20260506142937 | 71 | 181 | 5.0 | 12.0 | 0.00 | 0.08 | 0.02 | 63 | 1014.0 |
| 20260506142442 | 71 | 202 | 5.0 | 16.0 | 0.00 | 0.08 | 0.02 | 63 | 1014.0 |
| 20260506141934 | 71 | 145 | 9.0 | 16.0 | 0.00 | 0.08 | 0.02 | 63 | 1014.0 |
| 20260506141429 | 72 | 140 | 8.0 | 15.0 | 0.00 | 0.08 | 0.02 | 62 | 1014.1 |
| 20260506140953 | 72 | 167 | 5.0 | 13.0 | 0.00 | 0.08 | 0.02 | 62 | 1014.1 |
| 20260506140435 | 72 | 190 | 6.0 | 13.0 | 0.00 | 0.08 | 0.02 | 62 | 1014.1 |
| 20260506135947 | 72 | 177 | 6.0 | 16.0 | 0.00 | 0.08 | 0.02 | 61 | 1014.0 |
| 20260506135428 | 72 | 189 | 5.0 | 14.0 | 0.00 | 0.08 | 0.02 | 61 | 1013.9 |
| 20260506134940 | 72 | 231 | 7.0 | 11.0 | 0.00 | 0.08 | 0.02 | 61 | 1014.0 |
| 20260506134439 | 73 | 185 | 4.0 | 12.0 | 0.00 | 0.08 | 0.02 | 61 | 1014.1 |
| 20260506133948 | 73 | 216 | 5.0 | 13.0 | 0.00 | 0.08 | 0.02 | 60 | 1014.1 |
| 20260506133455 | 73 | 225 | 4.0 | 12.0 | 0.00 | 0.08 | 0.02 | 59 | 1014.3 |
| 20260506132931 | 73 | 233 | 5.0 | 15.0 | 0.00 | 0.08 | 0.02 | 59 | 1014.3 |
| 20260506132456 | 73 | 206 | 6.0 | 15.0 | 0.00 | 0.08 | 0.02 | 59 | 1014.3 |
| 20260506132015 | 73 | 219 | 5.0 | 14.0 | 0.00 | 0.08 | 0.02 | 59 | 1014.2 |
| 20260506131430 | 74 | 204 | 6.0 | 17.0 | 0.00 | 0.08 | 0.02 | 58 | 1014.2 |
| 20260506130943 | 74 | 211 | 5.0 | 16.0 | 0.00 | 0.08 | 0.02 | 58 | 1014.3 |
| 20260506130441 | 74 | 210 | 4.0 | 15.0 | 0.00 | 0.08 | 0.02 | 57 | 1014.3 |
| 20260506130000 | 74 | 243 | 6.0 | 14.0 | 0.00 | 0.08 | 0.02 | 57 | 1014.2 |
| 20260506125454 | 74 | 190 | 5.0 | 10.0 | 0.00 | 0.08 | 0.02 | 57 | 1014.2 |
| 20260506124931 | 74 | 227 | 6.0 | 16.0 | 0.00 | 0.08 | 0.02 | 57 | 1014.2 |
| 20260506124458 | 74 | 198 | 6.0 | 17.0 | 0.00 | 0.08 | 0.02 | 56 | 1014.3 |
| 20260506123948 | 75 | 200 | 7.0 | 17.0 | 0.00 | 0.08 | 0.02 | 56 | 1014.3 |
| 20260506123444 | 75 | 160 | 5.0 | 14.0 | 0.00 | 0.08 | 0.02 | 53 | 1014.3 |
| 20260506122930 | 75 | 206 | 7.0 | 14.0 | 0.00 | 0.08 | 0.02 | 53 | 1014.3 |
| 20260506122456 | 75 | 239 | 4.0 | 16.0 | 0.00 | 0.08 | 0.02 | 53 | 1014.3 |
| 20260506121931 | 76 | 181 | 6.0 | 16.0 | 0.00 | 0.08 | 0.02 | 53 | 1014.2 |
| 20260506121453 | 76 | 229 | 6.0 | 17.0 | 0.00 | 0.08 | 0.02 | 52 | 1014.3 |
| 20260506120939 | 76 | 170 | 8.0 | 17.0 | 0.00 | 0.08 | 0.02 | 52 | 1014.2 |
| 20260506120437 | 76 | 202 | 5.0 | 16.0 | 0.00 | 0.08 | 0.02 | 52 | 1014.2 |
| 20260506115946 | 76 | 156 | 6.0 | 17.0 | 0.00 | 0.08 | 0.02 | 53 | 1014.2 |
| 20260506115444 | 76 | 196 | 8.0 | 17.0 | 0.00 | 0.08 | 0.02 | 53 | 1014.2 |
| 20260506115107 | 76 | 219 | 6.0 | 17.0 | 0.00 | 0.08 | 0.02 | 53 | 1014.1 |
| 20260506114445 | 76 | 236 | 9.0 | 17.0 | 0.00 | 0.08 | 0.02 | 53 | 1014.3 |
| 20260506114005 | 76 | 196 | 6.0 | 16.0 | 0.00 | 0.08 | 0.02 | 53 | 1014.1 |
| 20260506113445 | 76 | 206 | 6.0 | 15.0 | 0.00 | 0.08 | 0.02 | 54 | 1014.1 |
| 20260506112935 | 76 | 198 | 7.0 | 12.0 | 0.00 | 0.08 | 0.02 | 53 | 1014.0 |
| 20260506112521 | 76 | 181 | 5.0 | 15.0 | 0.00 | 0.08 | 0.02 | 53 | 1014.1 |
| 20260506112023 | 76 | 189 | 6.0 | 15.0 | 0.00 | 0.08 | 0.02 | 53 | 1014.1 |
| 20260506111940 | 76 | 189 | 6.0 | 15.0 | 0.00 | 0.08 | 0.02 | 53 | 1014.1 |
| 20260506111444 | 76 | 203 | 6.0 | 14.0 | 0.00 | 0.08 | 0.02 | 52 | 1014.1 |
| 20260506110944 | 76 | 208 | 7.0 | 14.0 | 0.00 | 0.08 | 0.02 | 51 | 1014.1 |
| 20260506110440 | 76 | 212 | 5.0 | 12.0 | 0.00 | 0.08 | 0.02 | 51 | 1014.0 |
| 20260506105942 | 75 | 184 | 6.0 | 12.0 | 0.00 | 0.08 | 0.02 | 51 | 1014.0 |
| 20260506105443 | 75 | 181 | 5.0 | 14.0 | 0.00 | 0.08 | 0.02 | 51 | 1014.1 |
| 20260506104929 | 75 | 215 | 7.0 | 19.0 | 0.00 | 0.08 | 0.02 | 51 | 1014.2 |
| 20260506104452 | 74 | 159 | 10.0 | 19.0 | 0.00 | 0.08 | 0.02 | 51 | 1014.3 |
| 20260506103948 | 74 | 167 | 3.0 | 18.0 | 0.00 | 0.08 | 0.02 | 52 | 1014.3 |
| 20260506103444 | 74 | 181 | 6.0 | 18.0 | 0.00 | 0.08 | 0.02 | 50 | 1014.4 |
| 20260506102958 | 73 | 146 | 6.0 | 16.0 | 0.00 | 0.08 | 0.02 | 51 | 1014.6 |
| 20260506102446 | 73 | 151 | 9.0 | 20.0 | 0.00 | 0.08 | 0.02 | 50 | 1014.5 |
| 20260506102000 | 72 | 155 | 9.0 | 20.0 | 0.00 | 0.08 | 0.02 | 51 | 1014.4 |
| 20260506101445 | 72 | 160 | 10.0 | 19.0 | 0.00 | 0.08 | 0.02 | 54 | 1014.2 |
| 20260506100937 | 72 | 171 | 9.0 | 18.0 | 0.00 | 0.08 | 0.02 | 55 | 1014.2 |
| 20260506100431 | 72 | 186 | 9.0 | 18.0 | 0.00 | 0.08 | 0.02 | 54 | 1014.2 |
| 20260506095950 | 71 | 113 | 5.0 | 15.0 | 0.00 | 0.08 | 0.02 | 57 | 1014.2 |
| 20260506095444 | 71 | 159 | 5.0 | 16.0 | 0.00 | 0.08 | 0.02 | 58 | 1014.3 |
| 20260506094935 | 71 | 202 | 8.0 | 16.0 | 0.00 | 0.08 | 0.02 | 58 | 1014.3 |
| 20260506094427 | 70 | 187 | 3.0 | 18.0 | 0.00 | 0.08 | 0.02 | 60 | 1014.3 |
| 20260506094009 | 70 | 146 | 10.0 | 18.0 | 0.00 | 0.08 | 0.02 | 59 | 1014.4 |
| 20260506093443 | 70 | 138 | 9.0 | 16.0 | 0.00 | 0.08 | 0.02 | 60 | 1014.3 |
| 20260506092937 | 70 | 125 | 7.0 | 17.0 | 0.00 | 0.08 | 0.02 | 60 | 1014.3 |
| 20260506092433 | 70 | 165 | 8.0 | 15.0 | 0.00 | 0.08 | 0.02 | 61 | 1014.2 |
| 20260506091954 | 70 | 137 | 6.0 | 16.0 | 0.00 | 0.08 | 0.02 | 64 | 1014.2 |
| 20260506091429 | 69 | 169 | 7.0 | 18.0 | 0.00 | 0.08 | 0.02 | 64 | 1014.1 |
| 20260506090950 | 69 | 156 | 5.0 | 14.0 | 0.00 | 0.08 | 0.02 | 65 | 1014.0 |
| 20260506090444 | 68 | 142 | 7.0 | 14.0 | 0.00 | 0.08 | 0.02 | 65 | 1014.0 |
| 20260506085930 | 68 | 166 | 6.0 | 14.0 | 0.00 | 0.08 | 0.02 | 66 | 1014.1 |
| 20260506085441 | 68 | 125 | 6.0 | 15.0 | 0.00 | 0.08 | 0.02 | 66 | 1014.0 |
| 20260506084933 | 67 | 177 | 6.0 | 17.0 | 0.00 | 0.08 | 0.02 | 67 | 1014.1 |
| 20260506084458 | 67 | 154 | 6.0 | 21.0 | 0.00 | 0.08 | 0.02 | 67 | 1014.1 |
| 20260506083949 | 67 | 170 | 10.0 | 21.0 | 0.00 | 0.08 | 0.02 | 67 | 1014.0 |
| 20260506083446 | 67 | 137 | 9.0 | 17.0 | 0.00 | 0.08 | 0.02 | 67 | 1013.9 |
| 20260506082936 | 67 | 161 | 8.0 | 13.0 | 0.00 | 0.08 | 0.02 | 67 | 1013.9 |
| 20260506082433 | 67 | 143 | 6.0 | 15.0 | 0.00 | 0.08 | 0.02 | 67 | 1013.9 |
| 20260506081945 | 67 | 140 | 7.0 | 15.0 | 0.00 | 0.08 | 0.02 | 67 | 1013.8 |